| time (UTC) | temp F | wind direction | speed MPH | gust MPH | rain 1hr in | rain 24hr in | rain mn in | humidity % | barometer mb |
| 20260502151016 | 56 | 0.0 | 0.0 | 0.00 | 0.00 | 0.00 | 40 | 1011.9 | |
| 20260502123036 | 47 | 0.0 | 0.0 | 0.00 | 0.00 | 0.00 | 40 | 1011.3 | |
| 20260502122016 | 47 | 0.0 | 0.0 | 0.00 | 0.00 | 0.00 | 41 | 1011.3 | |
| 20260502121016 | 46 | 0.0 | 0.0 | 0.00 | 0.00 | 0.00 | 43 | 1011.3 | |
| 20260502115016 | 46 | 0.0 | 0.0 | 0.00 | 0.00 | 0.00 | 42 | 1011.3 | |
| 20260502114015 | 47 | 0.0 | 0.0 | 0.00 | 0.00 | 0.00 | 43 | 1011.3 | |
| 20260502113016 | 46 | 0.0 | 0.0 | 0.00 | 0.00 | 0.00 | 43 | 1011.4 | |
| 20260502112056 | 46 | 0.0 | 0.0 | 0.00 | 0.00 | 0.00 | 44 | 1011.5 | |
| 20260502111016 | 46 | 0.0 | 0.0 | 0.00 | 0.00 | 0.00 | 45 | 1011.5 | |
| 20260502110016 | 47 | 0.0 | 0.0 | 0.00 | 0.00 | 0.00 | 43 | 1011.5 | |
| 20260502105015 | 47 | 0.0 | 0.0 | 0.00 | 0.00 | 0.00 | 44 | 1011.5 | |
| 20260502104015 | 47 | 0.0 | 0.0 | 0.00 | 0.00 | 0.00 | 43 | 1011.4 | |
| 20260502103015 | 47 | 0.0 | 0.0 | 0.00 | 0.00 | 0.00 | 44 | 1011.4 | |
| 20260502102016 | 47 | 0.0 | 0.0 | 0.00 | 0.00 | 0.00 | 45 | 1011.3 | |
| 20260502101035 | 47 | 0.0 | 0.0 | 0.00 | 0.00 | 0.00 | 45 | 1011.4 | |
| 20260502091015 | 47 | 0.0 | 0.0 | 0.00 | 0.00 | 0.00 | 44 | 1011.4 | |
| 20260502071017 | 52 | 0.0 | 0.0 | 0.00 | 0.00 | 0.00 | 39 | 1011.2 | |
| 20260502070037 | 51 | 0.0 | 0.0 | 0.00 | 0.00 | 0.00 | 39 | 1011.2 | |
| 20260502065017 | 52 | 0.0 | 0.0 | 0.00 | 0.00 | 0.00 | 36 | 1011.3 | |
| 20260502064037 | 54 | 0.0 | 0.0 | 0.00 | 0.00 | 0.00 | 32 | 1011.3 | |
| 20260502063017 | 53 | 0.0 | 0.0 | 0.00 | 0.00 | 0.00 | 33 | 1011.3 | |
| 20260502062017 | 53 | 0.0 | 0.0 | 0.00 | 0.00 | 0.00 | 33 | 1011.2 | |
| 20260502061017 | 54 | 0.0 | 0.0 | 0.00 | 0.00 | 0.00 | 36 | 1011.2 | |
| 20260502060037 | 54 | 0.0 | 0.0 | 0.00 | 0.00 | 0.00 | 36 | 1011.2 | |
| 20260502055017 | 53 | 0.0 | 0.0 | 0.00 | 0.00 | 0.00 | 40 | 1011.2 | |
| 20260502054016 | 54 | 0.0 | 0.0 | 0.00 | 0.00 | 0.00 | 39 | 1011.2 | |
| 20260502053016 | 54 | 0.0 | 0.0 | 0.00 | 0.00 | 0.00 | 40 | 1011.2 | |
| 20260502052017 | 54 | 0.0 | 0.0 | 0.00 | 0.00 | 0.00 | 38 | 1011.2 | |
| 20260502051036 | 55 | 0.0 | 0.0 | 0.00 | 0.00 | 0.00 | 38 | 1011.2 | |
| 20260502050016 | 55 | 0.0 | 0.0 | 0.00 | 0.00 | 0.00 | 39 | 1011.2 | |
| 20260502045016 | 54 | 0.0 | 0.0 | 0.00 | 0.00 | 0.00 | 40 | 1011.2 | |
| 20260502044017 | 55 | 0.0 | 0.0 | 0.00 | 0.00 | 0.00 | 39 | 1011.2 | |
| 20260502043036 | 55 | 0.0 | 0.0 | 0.00 | 0.00 | 0.00 | 40 | 1011.1 | |
| 20260502042016 | 56 | 0.0 | 0.0 | 0.00 | 0.00 | 0.00 | 38 | 1011.1 | |
| 20260502041136 | 55 | 0.0 | 0.0 | 0.00 | 0.00 | 0.00 | 39 | 1011.0 | |
| 20260502040036 | 55 | 0.0 | 0.0 | 0.00 | 0.00 | 0.00 | 39 | 1010.8 | |
| 20260502035016 | 56 | 0.0 | 0.0 | 0.00 | 0.00 | 0.00 | 39 | 1010.8 | |
| 20260502034016 | 56 | 0.0 | 0.0 | 0.00 | 0.00 | 0.00 | 38 | 1010.6 | |
| 20260502033016 | 56 | 0.0 | 0.0 | 0.00 | 0.00 | 0.00 | 39 | 1010.5 | |
| 20260502032016 | 56 | 0.0 | 0.0 | 0.00 | 0.00 | 0.00 | 40 | 1010.5 | |
| 20260502031016 | 55 | 0.0 | 0.0 | 0.00 | 0.00 | 0.00 | 41 | 1010.4 | |
| 20260502030016 | 56 | 0.0 | 0.0 | 0.00 | 0.00 | 0.00 | 41 | 1010.2 | |
| 20260502025016 | 56 | 0.0 | 0.0 | 0.00 | 0.00 | 0.00 | 43 | 1010.2 | |
| 20260502024016 | 56 | 0.0 | 0.0 | 0.00 | 0.00 | 0.00 | 43 | 1010.1 | |
| 20260502023016 | 56 | 0.0 | 0.0 | 0.00 | 0.00 | 0.00 | 43 | 1010.1 | |
| 20260502022016 | 57 | 0.0 | 0.0 | 0.00 | 0.00 | 0.00 | 42 | 1010.0 | |
| 20260502021016 | 58 | 0.0 | 0.0 | 0.00 | 0.00 | 0.00 | 39 | 1009.9 | |
| 20260502020016 | 59 | 0.0 | 0.0 | 0.00 | 0.00 | 0.00 | 37 | 1009.8 | |
| 20260502015016 | 59 | 0.0 | 0.0 | 0.00 | 0.00 | 0.00 | 35 | 1009.7 | |
| 20260502014016 | 59 | 0.0 | 0.0 | 0.00 | 0.00 | 0.00 | 37 | 1009.6 | |
| 20260502013016 | 60 | 0.0 | 0.0 | 0.00 | 0.00 | 0.00 | 35 | 1009.6 | |
| 20260502012016 | 61 | 0.0 | 0.0 | 0.00 | 0.00 | 0.00 | 34 | 1009.5 | |
| 20260502011016 | 61 | 0.0 | 0.0 | 0.00 | 0.00 | 0.00 | 34 | 1009.5 | |
| 20260502010016 | 61 | 0.0 | 0.0 | 0.00 | 0.00 | 0.00 | 33 | 1009.5 | |
| 20260502005016 | 62 | 0.0 | 0.0 | 0.00 | 0.00 | 0.00 | 34 | 1009.6 | |
| 20260502004016 | 62 | 0.0 | 0.0 | 0.00 | 0.00 | 0.00 | 35 | 1009.6 | |
| 20260502003036 | 62 | 0.0 | 0.0 | 0.00 | 0.00 | 0.00 | 32 | 1009.5 | |
| 20260502002016 | 63 | 0.0 | 0.0 | 0.00 | 0.00 | 0.00 | 32 | 1009.6 | |
| 20260502001015 | 62 | 0.0 | 0.0 | 0.00 | 0.00 | 0.00 | 32 | 1009.6 | |
| 20260502000016 | 63 | 0.0 | 0.0 | 0.00 | 0.00 | 0.00 | 33 | 1009.7 | |
| 20260501235015 | 63 | 0.0 | 0.0 | 0.00 | 0.00 | 0.00 | 35 | 1009.6 | |
| 20260501234016 | 63 | 0.0 | 0.0 | 0.00 | 0.00 | 0.00 | 32 | 1009.7 | |
| 20260501233016 | 64 | 0.0 | 0.0 | 0.00 | 0.00 | 0.00 | 32 | 1009.7 | |
| 20260501232015 | 65 | 0.0 | 0.0 | 0.00 | 0.00 | 0.00 | 31 | 1009.7 | |
| 20260501231016 | 64 | 0.0 | 0.0 | 0.00 | 0.00 | 0.00 | 31 | 1009.7 | |
| 20260501230015 | 64 | 0.0 | 0.0 | 0.00 | 0.00 | 0.00 | 33 | 1009.8 | |
| 20260501225015 | 65 | 0.0 | 0.0 | 0.00 | 0.00 | 0.00 | 31 | 1009.8 | |
| 20260501224036 | 65 | 0.0 | 0.0 | 0.00 | 0.00 | 0.00 | 29 | 1009.8 | |
| 20260501223015 | 64 | 0.0 | 0.0 | 0.00 | 0.00 | 0.00 | 31 | 1010.0 | |
| 20260501222015 | 65 | 0.0 | 0.0 | 0.00 | 0.00 | 0.00 | 33 | 1010.0 | |
| 20260501221035 | 65 | 0.0 | 0.0 | 0.00 | 0.00 | 0.00 | 31 | 1010.2 | |
| 20260501220015 | 65 | 0.0 | 0.0 | 0.00 | 0.00 | 0.00 | 36 | 1010.2 | |
| 20260501215015 | 65 | 0.0 | 0.0 | 0.00 | 0.00 | 0.00 | 29 | 1010.3 | |
| 20260501214056 | 65 | 0.0 | 0.0 | 0.00 | 0.00 | 0.00 | 30 | 1010.3 | |
| 20260501213015 | 65 | 0.0 | 0.0 | 0.00 | 0.00 | 0.00 | 28 | 1010.4 | |
| 20260501212055 | 65 | 0.0 | 0.0 | 0.00 | 0.00 | 0.00 | 28 | 1010.5 | |
| 20260501211015 | 65 | 0.0 | 0.0 | 0.00 | 0.00 | 0.00 | 27 | 1010.6 | |
| 20260501210017 | 64 | 0.0 | 0.0 | 0.00 | 0.00 | 0.00 | 25 | 1010.6 | |
| 20260501205057 | 66 | 0.0 | 2.0 | 0.00 | 0.00 | 0.00 | 30 | 1010.6 | |
| 20260501204017 | 67 | 0.0 | 0.0 | 0.00 | 0.00 | 0.00 | 31 | 1010.6 | |
| 20260501203017 | 66 | 0.0 | 0.0 | 0.00 | 0.00 | 0.00 | 24 | 1010.6 | |
| 20260501202017 | 67 | 0.0 | 1.0 | 0.00 | 0.00 | 0.00 | 31 | 1010.6 | |
| 20260501201017 | 66 | 0.0 | 0.0 | 0.00 | 0.00 | 0.00 | 24 | 1010.6 | |
| 20260501200017 | 64 | 0.0 | 0.0 | 0.00 | 0.00 | 0.00 | 25 | 1010.6 | |
| 20260501195017 | 65 | 0.0 | 4.0 | 0.00 | 0.00 | 0.00 | 23 | 1010.7 | |
| 20260501194017 | 64 | 0.0 | 0.0 | 0.00 | 0.00 | 0.00 | 28 | 1010.7 | |
| 20260501193017 | 63 | 0.0 | 0.0 | 0.00 | 0.00 | 0.00 | 23 | 1010.9 | |
| 20260501192017 | 63 | 0.0 | 1.0 | 0.00 | 0.00 | 0.00 | 26 | 1011.0 | |
| 20260501191017 | 63 | 0.0 | 4.0 | 0.00 | 0.00 | 0.00 | 24 | 1011.2 | |
| 20260501190017 | 64 | 0.0 | 1.0 | 0.00 | 0.00 | 0.00 | 25 | 1011.4 | |
| 20260501185037 | 63 | 0.0 | 0.0 | 0.00 | 0.00 | 0.00 | 26 | 1011.4 | |
| 20260501184017 | 62 | 0.0 | 4.0 | 0.00 | 0.00 | 0.00 | 27 | 1011.6 | |
| 20260501183017 | 62 | 0.0 | 1.0 | 0.00 | 0.00 | 0.00 | 25 | 1011.5 | |
| 20260501182017 | 61 | 0.0 | 2.0 | 0.00 | 0.00 | 0.00 | 26 | 1011.6 | |
| 20260501181017 | 61 | 0.0 | 1.0 | 0.00 | 0.00 | 0.00 | 27 | 1011.7 | |
| 20260501180016 | 59 | 0.0 | 6.0 | 0.00 | 0.00 | 0.00 | 28 | 1011.8 | |
| 20260501175036 | 58 | 68 | 4.0 | 15.0 | 0.00 | 0.00 | 0.00 | 26 | 1011.9 |
| 20260501174017 | 60 | 90 | 1.0 | 9.0 | 0.00 | 0.00 | 0.00 | 28 | 1011.7 |
| 20260501173017 | 61 | 68 | 1.0 | 10.0 | 0.00 | 0.00 | 0.00 | 30 | 1011.8 |
| 20260501172016 | 61 | 0.0 | 11.0 | 0.00 | 0.00 | 0.00 | 29 | 1011.9 | |
| 20260501171037 | 61 | 0.0 | 1.0 | 0.00 | 0.00 | 0.00 | 28 | 1011.9 | |
| 20260501170017 | 59 | 0.0 | 10.0 | 0.00 | 0.00 | 0.00 | 31 | 1012.0 | |
| 20260501165056 | 59 | 0.0 | 3.0 | 0.00 | 0.00 | 0.00 | 31 | 1011.9 | |
| 20260501164016 | 58 | 68 | 1.0 | 9.0 | 0.00 | 0.00 | 0.00 | 28 | 1012.0 |
| 20260501163016 | 57 | 0.0 | 5.0 | 0.00 | 0.00 | 0.00 | 30 | 1011.9 | |
| 20260501162016 | 58 | 68 | 1.0 | 13.0 | 0.00 | 0.00 | 0.00 | 30 | 1011.8 |
| 20260501161017 | 59 | 158 | 1.0 | 9.0 | 0.00 | 0.00 | 0.00 | 30 | 1011.7 |
| 20260501160016 | 60 | 0.0 | 3.0 | 0.00 | 0.00 | 0.00 | 30 | 1011.7 | |
| 20260501155016 | 59 | 135 | 3.0 | 14.0 | 0.00 | 0.00 | 0.00 | 26 | 1011.5 |
| 20260501154016 | 58 | 0.0 | 8.0 | 0.00 | 0.00 | 0.00 | 31 | 1011.6 | |
| 20260501153016 | 57 | 0.0 | 3.0 | 0.00 | 0.00 | 0.00 | 31 | 1011.6 | |
| 20260501152016 | 57 | 0.0 | 0.0 | 0.00 | 0.00 | 0.00 | 31 | 1011.7 |